Temperature
18 19 19 18 15 15 16 17 18 20 21 22 23 22 21 21 21 20 22 22 22 22 22 22 22 22 21 21 20 19 19 18 17 17 17 17 17 17 17 17 17 17 17 17 17 17 17 17 17
18 19 18 17 14 16 17 17 18 20 22 22 22 22 22 21 21 22 22 22 22 22 22 22 22 21 21 21 20 20 19 18 18 17 17 17 17 17 17 17 17 17 17 17 17 17 17 17 17
18 19 18 14 13 16 17 19 19 20 22 22 22 22 21 21 21 21 22 22 22 21 21 21 21 21 21 21 20 20 19 19 18 17 17 17 17 17 17 17 17 17 17 17 17 17 16 16 17
18 18 17 15 15 17 17 19 19 19 22 22 22 20 20 20 21 21 21 21 21 21 21 21 20 20 20 20 20 20 19 19 18 18 17 17 17 16 16 17 17 17 17 17 17 16 16 16 17
18 18 13 14 15 17 16 18 19 20 21 21 21 20 20 20 21 21 21 21 21 21 21 21 20 20 20 20 20 20 19 19 19 18 17 17 16 16 16 16 16 16 16 16 16 16 16 16 17
18 15 14 14 15 16 16 19 20 20 20 21 20 19 19 20 20 21 21 21 22 22 21 21 20 20 19 19 19 19 19 19 19 18 17 16 16 16 16 16 16 16 16 16 16 16 16 16 16
16 13 15 14 15 17 18 19 20 20 20 20 20 19 19 19 20 21 21 21 21 21 21 21 20 19 19 18 18 18 18 18 18 17 16 16 15 16 15 16 16 16 16 16 16 16 16 16 16
18 13 15 15 16 18 19 20 21 21 20 20 20 19 19 20 20 20 21 21 21 21 21 20 20 19 18 18 17 17 17 17 17 17 16 16 16 16 15 15 15 15 16 16 16 16 16 15 16
18 13 14 15 16 19 19 19 21 21 21 21 21 21 21 20 19 19 19 20 20 20 20 20 19 18 18 17 17 17 16 16 16 16 16 16 16 16 16 16 15 15 15 15 15 15 16 15 15
16 13 14 16 17 18 19 19 21 20 20 20 20 21 20 19 18 18 19 19 19 19 19 19 18 18 17 17 16 16 16 15 15 15 16 16 15 16 16 16 16 16 15 15 15 15 15 15 15
15 15 15 17 18 19 19 19 20 19 18 20 21 22 20 18 18 18 18 18 19 18 18 18 18 18 17 17 16 15 15 15 15 15 14 15 15 15 16 16 16 16 15 15 15 15 15 15 15
15 15 16 17 19 18 18 19 19 19 20 21 21 21 20 18 18 18 17 17 17 17 17 17 17 17 17 16 15 15 14 14 14 14 14 14 14 14 15 16 16 15 15 15 14 14 14 14 15
15 16 18 18 18 18 18 17 18 19 21 21 20 20 19 18 17 17 16 16 16 16 17 17 17 16 15 15 14 14 13 13 13 13 13 13 13 13 13 13 13 14 14 14 14 14 14 14 14
16 16 16 18 18 17 16 16 17 19 20 20 19 19 18 18 17 17 16 16 15 16 16 16 16 16 15 15 14 13 13 13 12 12 12 12 12 12 12 12 12 13 13 13 13 14 14 14 14
16 15 15 16 17 17 16 16 16 19 18 18 19 18 17 17 16 17 17 16 16 16 16 15 15 15 15 15 15 14 14 13 12 12 12 12 12 12 12 12 12 12 12 13 13 13 13 13 13
14 14 15 16 16 16 16 15 16 19 18 18 18 17 17 16 16 16 16 16 15 15 15 15 15 15 15 15 15 14 14 13 12 12 12 12 12 12 12 12 12 12 12 12 12 13 13 13 13
13 14 14 15 16 16 16 14 15 19 17 17 18 18 17 16 16 15 15 15 15 15 15 15 15 15 15 14 14 13 12 12 12 12 12 12 11 11 11 11 11 11 11 12 12 12 13 13 12
14 14 13 13 14 14 14 13 14 17 16 15 16 16 17 16 16 15 15 14 14 14 15 14 14 14 14 14 13 12 11 11 11 11 11 11 11 11 11 11 11 11 11 11 11 11 12 12 12
14 13 12 12 13 13 13 12 13 15 14 13 14 15 16 16 16 15 14 14 14 14 14 14 14 14 14 13 12 11 11 11 10 10 11 11 11 11 11 11 10 10 10 11 11 11 11 11 11
14 13 12 13 13 12 11 11 12 12 12 14 14 14 15 15 15 15 14 13 13 13 14 13 13 13 13 12 11 11 10 10 10 10 10 10 10 10 10 10 10 10 10 10 10 10 10 11 11
13 13 13 12 11 11 11 11 12 14 13 14 14 14 14 14 15 15 14 13 12 13 13 13 13 13 12 11 10 10 10 10 10 9 9 10 10 9 9 9 9 9 9 9 9 9 10 10 10
12 13 12 11 10 10 11 10 11 12 11 12 13 14 14 15 15 14 13 12 12 12 13 13 13 12 12 11 10 10 9 9 9 9 9 9 9 9 9 9 9 9 9 9 8 8 9 9 9
12 12 11 11 10 9 9 9 11 10 13 12 10 13 14 15 15 15 12 12 12 12 12 12 12 12 11 11 10 9 9 8 8 8 8 8 8 8 8 8 8 8 8 8 8 8 8 8 8
11 11 10 8 8 10 10 10 10 11 12 10 9 12 13 14 14 15 13 11 12 12 12 12 12 11 11 10 9 9 8 8 8 8 8 8 8 8 8 8 7 8 8 8 8 8 8 8 8
10 11 10 10 11 11 9 9 9 10 10 9 8 10 10 12 13 13 12 11 11 11 12 12 11 10 10 9 9 9 9 8 8 8 8 8 8 7 7 7 7 7 7 7 7 7 7 7 8
10 10 11 10 9 9 10 8 10 10 9 8 7 7 8 9 11 12 12 11 11 11 11 11 11 10 10 9 9 9 8 8 8 8 8 7 7 7 7 7 7 7 7 7 7 7 7 7 7
9 9 9 9 7 6 8 8 10 9 6 4 5 6 6 7 8 10 10 11 11 11 11 11 11 10 10 9 9 8 8 8 7 7 7 7 7 7 7 7 7 7 7 7 7 7 7 7 7
8 9 5 7 6 6 7 8 8 5 1 3 3 4 5 6 7 8 8 9 10 10 11 11 10 10 10 9 9 8 8 7 7 7 7 7 6 6 6 6 6 6 6 6 6 6 6 6 6
9 8 8 6 6 6 6 8 6 -0 1 2 3 4 5 5 5 5 7 9 9 9 10 10 10 10 9 9 9 8 9 8 6 6 6 6 6 6 6 5 5 5 5 5 5 6 6 6 6
8 7 6 6 5 4 6 7 7 4 3 3 4 4 4 5 4 5 5 6 8 9 9 9 9 10 9 8 8 7 7 7 6 6 6 6 6 5 5 4 4 4 4 4 4 4 4 4 5
Wind_Speed
5 5 3 4 5 3 3 5 3 3 3 3 3 4 4 2 2 2 5 3 2 3 7 12 14 15 15 14 14 13 11 11 10 8 6 6 8 8 6 6 7 6 7 7 7 8 8 8 9
4 3 4 4 4 1 5 4 5 5 2 0 2 2 2 0 2 5 5 5 2 4 7 9 13 14 15 14 14 14 13 11 11 9 7 8 8 7 6 6 6 6 8 7 7 6 8 9 9
3 4 4 4 3 4 5 4 5 5 3 1 1 2 1 1 4 5 6 8 3 4 6 8 11 13 13 13 14 14 12 11 11 10 8 6 5 6 6 6 6 6 8 8 7 7 7 9 9
3 4 5 3 3 6 5 4 4 6 5 1 1 1 2 3 5 7 11 6 4 5 6 8 12 13 13 13 14 13 12 11 9 9 8 8 7 6 6 6 6 7 8 8 9 9 8 8 9
5 4 4 1 5 6 6 5 2 3 4 3 1 2 1 4 6 7 10 5 4 4 4 6 11 13 13 13 14 13 12 12 11 10 10 9 9 7 6 5 5 6 7 9 10 11 11 11 10
4 4 2 3 6 7 7 4 2 3 4 5 0 5 3 4 5 8 9 7 2 4 4 3 6 10 11 12 13 13 13 12 11 11 11 10 9 7 6 5 5 5 7 9 11 13 14 13 12
4 4 2 3 5 6 5 4 2 2 2 2 0 3 3 3 2 4 6 8 9 5 5 4 4 5 7 9 11 11 12 12 11 10 10 9 9 8 7 6 5 6 8 10 11 13 14 12 13
5 4 1 3 3 5 4 5 2 3 2 1 1 4 5 5 1 1 5 8 9 8 6 2 2 4 4 5 8 9 10 11 10 9 9 9 8 5 5 3 3 5 8 10 11 13 14 12 13
4 3 2 4 4 4 4 4 3 1 2 2 3 6 4 1 2 3 5 7 7 7 7 6 3 2 4 4 5 6 7 9 9 8 8 6 4 3 4 4 5 6 8 9 10 13 14 14 13
4 3 6 5 4 4 4 3 4 2 3 4 5 5 2 2 3 5 5 4 5 5 6 7 5 4 3 3 4 4 5 6 6 6 7 6 6 6 7 8 8 8 9 9 9 11 12 12 9
5 6 5 6 6 5 5 6 4 4 7 9 10 8 7 4 5 7 5 4 4 4 5 7 7 3 4 3 3 3 3 4 5 6 7 6 5 6 7 6 7 8 9 7 8 8 7 8 7
4 7 6 5 3 5 5 5 6 8 13 7 7 6 8 8 8 8 7 5 4 4 5 8 8 6 2 1 1 1 1 1 2 5 6 4 3 4 3 2 5 5 6 5 5 4 5 6 7
4 5 6 7 9 7 6 8 7 11 12 4 4 8 10 10 8 6 7 7 6 4 3 5 7 7 7 5 4 3 2 2 3 4 6 6 4 5 5 4 3 5 5 4 5 5 5 5 5
4 5 8 8 8 5 5 6 4 12 3 4 7 9 10 10 10 7 7 6 6 4 3 4 7 7 8 7 6 5 4 3 3 4 5 6 4 4 4 4 4 4 4 4 4 4 3 2 3
3 6 8 4 3 4 2 6 8 8 2 6 9 9 9 10 9 9 9 8 8 5 4 5 5 5 6 5 4 3 3 4 3 3 3 3 4 4 4 4 3 3 3 3 3 1 1 2 2
4 4 5 5 5 4 2 7 10 6 3 9 11 10 10 10 9 10 9 8 8 6 5 5 5 7 6 4 3 2 2 2 2 3 4 3 1 2 2 3 4 2 1 0 0 1 1 1 2
5 3 4 7 3 4 3 9 12 8 6 12 12 10 10 10 10 9 8 8 7 7 7 5 5 6 6 5 4 3 3 3 3 4 4 5 5 6 4 4 3 1 1 2 2 2 3 2 1
3 4 5 6 6 5 6 12 16 15 10 13 11 9 10 11 12 8 8 7 6 6 7 6 5 5 5 5 4 4 5 4 4 4 5 6 6 6 4 4 5 4 3 3 3 3 3 2 1
3 5 8 8 4 5 9 14 22 23 12 12 11 8 10 10 7 7 8 6 5 5 6 6 6 5 4 4 3 3 3 3 4 5 7 8 7 5 3 3 4 4 4 4 4 3 4 3 2
3 6 8 8 3 5 12 13 17 11 8 6 8 9 9 9 7 10 10 8 6 6 7 7 6 6 5 3 3 2 1 0 1 3 4 7 7 7 4 5 3 3 3 5 5 4 2 3 3
4 4 5 8 9 6 9 9 9 5 6 7 7 7 7 9 12 12 11 11 9 8 9 9 9 8 6 4 2 2 2 2 2 3 3 4 5 6 5 5 4 3 3 3 2 3 3 2 3
4 2 5 8 7 5 5 7 7 7 10 10 12 13 13 13 12 12 11 10 9 9 9 10 9 8 7 6 5 3 3 2 1 1 3 3 3 3 4 4 5 3 3 3 2 2 2 2 0
5 5 6 3 2 3 2 3 8 5 5 8 12 14 15 15 13 10 10 10 10 9 9 9 10 8 7 6 6 6 4 2 2 2 2 4 2 2 2 3 3 3 2 2 0 1 2 2 2
5 6 3 3 2 2 3 2 7 2 3 7 10 14 16 18 16 11 7 7 7 7 7 8 8 7 7 6 5 5 4 2 2 2 2 2 3 4 5 5 4 4 3 2 1 3 3 4 3
7 6 6 6 3 4 1 3 8 5 4 4 9 14 18 19 19 13 6 4 5 8 8 7 7 7 6 5 3 3 3 2 1 1 1 2 2 3 5 5 4 3 3 3 3 3 4 4 5
3 2 1 4 5 7 4 7 6 3 7 11 12 13 17 19 17 13 8 5 7 9 9 9 9 8 6 4 2 3 3 2 2 1 3 3 2 2 4 5 5 4 4 3 2 2 4 4 6
1 1 0 2 4 6 6 7 9 9 19 24 26 28 27 24 23 20 13 9 10 11 12 11 10 9 7 5 6 7 7 6 4 4 5 4 3 4 5 5 5 5 4 4 3 2 4 3 5
2 1 3 2 4 6 8 10 7 12 17 22 21 18 17 19 19 18 13 9 11 11 10 8 9 9 8 9 10 9 8 6 3 3 4 4 4 4 5 6 6 6 6 5 4 3 4 4 5
3 2 2 2 3 4 9 10 6 14 8 10 11 14 15 17 19 18 17 14 15 12 10 10 7 6 7 7 7 7 8 6 4 4 4 4 4 4 5 6 6 6 6 6 5 6 5 5 6
3 3 3 1 6 4 8 14 5 12 10 6 13 17 16 15 17 20 22 20 18 16 14 9 7 10 10 9 10 7 7 5 5 4 4 4 4 4 4 6 6 5 6 6 6 6 5 6 7
Wind_Direction
64 88 79 57 48 44 269 255 254 245 223 202 159 147 150 157 171 246 303 298 271 137 178 186 186 189 192 193 196 201 210 210 211 201 220 222 230 230 226 232 230 220 224 225 210 186 175 177 174
92 83 56 64 76 23 266 253 250 234 269 145 136 119 125 90 311 314 340 326 225 155 173 183 189 193 196 197 200 204 206 207 208 202 215 222 223 219 216 235 239 230 231 229 222 199 187 181 176
88 63 73 74 101 209 247 248 257 282 286 251 328 32 63 339 330 320 324 318 155 149 170 184 191 197 201 203 206 209 206 211 214 200 212 230 223 217 222 228 236 235 237 231 217 217 207 186 179
74 54 51 81 235 242 232 262 281 308 309 262 138 82 11 5 329 323 318 308 174 169 176 187 195 198 204 208 210 211 207 215 218 204 216 231 233 226 229 242 244 235 235 235 225 218 209 192 186
54 72 55 342 256 260 260 267 253 284 299 317 148 182 211 331 321 345 343 326 224 204 182 191 201 200 204 210 215 215 213 219 227 223 225 234 235 226 224 250 280 238 230 238 232 217 208 195 194
55 72 92 256 267 286 293 285 294 275 304 322 343 156 208 315 346 338 359 20 14 201 168 181 212 210 210 216 220 221 217 218 227 228 226 231 237 235 234 247 270 266 241 236 231 218 211 202 200
106 99 205 243 286 296 291 303 242 248 280 309 244 176 234 257 293 333 14 43 52 78 135 148 175 206 219 222 225 226 224 223 226 229 228 234 241 245 243 240 247 270 254 237 233 230 228 217 207
116 104 245 258 265 279 300 316 272 198 229 217 166 211 230 220 242 35 42 45 46 45 48 50 166 187 211 224 228 228 226 227 229 234 235 236 242 260 278 270 257 275 270 245 236 237 239 228 222
99 79 245 235 214 273 317 337 290 244 176 217 219 213 223 222 72 54 27 26 26 26 24 13 329 252 216 213 225 229 224 225 229 232 238 240 239 249 263 261 263 273 280 269 248 241 245 240 238
114 170 227 225 226 272 299 289 283 267 253 254 261 249 187 96 114 110 86 59 31 11 359 5 342 276 224 203 204 211 213 217 220 220 224 225 228 237 244 250 263 277 283 287 282 265 253 248 239
169 208 225 245 235 256 275 273 242 226 247 232 231 217 183 160 146 134 121 90 51 14 3 355 348 307 227 213 180 186 203 209 216 220 222 228 235 244 248 250 257 268 269 272 277 269 242 225 220
215 242 229 258 268 272 256 274 263 219 237 246 243 190 173 177 177 166 151 140 120 69 23 9 11 28 55 207 166 159 204 203 215 227 234 236 244 253 243 231 243 251 243 242 251 239 223 217 212
228 266 260 260 276 256 254 250 256 261 258 257 188 175 183 185 188 184 178 169 137 99 53 27 41 51 57 61 40 15 320 266 260 254 250 240 238 249 253 255 250 248 241 227 247 244 223 209 205
234 260 275 278 275 265 249 278 276 269 272 206 201 204 199 195 189 181 191 179 158 133 90 42 57 63 66 60 49 30 12 341 308 285 273 253 243 252 246 248 249 257 249 244 243 249 254 250 228
317 315 307 288 309 321 314 293 252 277 335 249 239 231 220 218 203 196 193 185 174 150 93 57 63 74 80 80 76 63 34 23 6 340 304 258 243 253 264 263 261 261 266 276 263 231 268 260 228
358 7 331 318 351 350 29 273 281 308 274 266 254 241 232 230 220 216 201 187 171 147 119 83 72 71 65 54 53 67 56 56 45 25 12 2 325 298 268 260 261 271 286 9 224 150 189 261 256
14 328 301 303 341 351 317 274 279 290 273 270 263 244 233 238 237 229 214 191 169 151 132 103 74 65 55 42 42 42 34 33 29 28 27 29 35 25 13 339 324 166 127 130 118 98 98 102 239
293 302 281 270 312 350 292 279 286 284 262 267 271 265 245 235 234 224 218 200 166 149 129 112 85 64 54 47 40 36 37 36 38 28 28 34 37 35 37 19 14 34 71 82 88 100 94 117 167
241 262 275 273 305 322 281 285 288 292 302 291 286 277 267 258 245 229 222 201 168 152 130 114 96 73 72 58 47 29 16 9 30 38 40 40 34 32 46 53 34 34 48 59 73 91 82 72 42
270 281 289 295 324 314 292 288 287 292 279 293 330 328 305 283 249 225 216 202 195 170 143 133 126 127 124 130 142 148 148 356 357 7 38 37 36 31 32 54 60 67 67 49 44 46 54 44 29
288 248 282 296 323 321 327 320 325 325 335 17 19 346 322 289 265 236 212 200 197 187 170 162 157 146 136 126 113 79 62 46 18 3 0 13 30 29 22 39 61 75 100 105 90 77 82 40 7
301 280 282 289 325 317 16 301 299 319 330 1 359 353 339 324 292 253 213 196 196 202 179 164 160 159 154 141 126 127 142 163 214 256 309 343 42 45 22 20 38 63 94 113 121 136 135 126 18
264 290 276 275 262 297 297 244 279 310 332 354 346 340 332 325 310 267 217 197 202 203 183 170 165 169 162 150 144 146 155 180 233 257 308 331 359 51 47 30 31 60 76 85 104 173 191 189 187
307 318 337 54 66 274 215 221 278 287 13 340 336 333 328 328 328 297 227 195 202 211 199 179 170 180 173 157 156 160 168 189 249 272 286 344 340 10 18 12 3 6 3 347 272 228 218 221 228
23 14 350 343 334 261 207 272 263 298 354 351 331 330 327 333 334 314 258 214 225 221 217 197 187 204 190 175 167 162 169 161 266 304 29 30 358 1 355 356 337 329 310 309 293 266 259 234 222
13 88 157 283 281 291 258 248 268 324 21 15 353 341 349 351 336 314 285 247 235 235 228 214 206 210 192 189 135 87 84 88 82 88 98 79 42 4 2 355 342 332 323 314 284 260 258 238 237
308 200 99 292 302 295 276 286 313 22 25 12 1 359 357 351 349 334 291 253 244 238 233 222 215 208 181 150 105 86 77 79 81 84 89 84 51 21 3 346 333 330 329 324 314 271 267 249 244
66 55 19 13 306 291 283 290 300 22 20 5 358 345 334 337 341 338 325 305 300 286 266 248 231 197 160 138 127 113 94 84 70 67 60 54 35 8 339 327 318 317 318 319 321 305 293 276 263
24 21 75 222 227 256 296 283 123 104 29 351 328 314 317 328 335 334 326 312 300 278 247 236 213 156 118 103 105 111 115 98 71 42 35 23 21 355 327 306 300 301 305 316 320 300 289 269 268
84 75 80 6 285 261 267 274 38 17 352 336 322 317 315 320 329 331 328 318 304 290 266 230 182 137 128 119 94 63 48 64 73 48 18 8 8 350 328 311 300 300 302 303 292 285 285 285 277
Height
1507 1507 1508 1509 1514 1521 1520 1511 1502 1499 1496 1493 1493 1494 1494 1496 1499 1505 1498 1496 1496 1495 1494 1494 1494 1494 1494 1495 1495 1497 1498 1499 1501 1502 1503 1505 1507 1508 1509 1509 1511 1511 1513 1514 1515 1515 1515 1516 1518
1507 1508 1510 1510 1520 1527 1519 1507 1501 1495 1494 1493 1493 1493 1492 1493 1494 1495 1495 1495 1496 1495 1495 1495 1495 1494 1494 1494 1495 1496 1497 1498 1499 1501 1502 1504 1505 1506 1507 1508 1510 1511 1512 1512 1513 1514 1515 1515 1517
1506 1508 1510 1514 1525 1524 1515 1502 1497 1493 1492 1493 1493 1493 1494 1493 1494 1494 1495 1495 1495 1496 1496 1496 1495 1495 1495 1495 1495 1495 1496 1497 1498 1500 1501 1503 1504 1505 1506 1507 1508 1509 1510 1511 1511 1512 1514 1514 1516
1507 1509 1511 1518 1522 1513 1505 1497 1496 1495 1493 1493 1493 1494 1494 1494 1494 1494 1494 1495 1495 1496 1496 1496 1496 1495 1495 1495 1495 1495 1496 1497 1498 1499 1500 1502 1503 1504 1505 1506 1507 1507 1508 1509 1509 1511 1512 1514 1515
1508 1509 1518 1522 1518 1507 1500 1496 1495 1495 1494 1493 1493 1493 1493 1494 1493 1493 1494 1495 1495 1495 1495 1495 1495 1495 1494 1494 1494 1494 1495 1496 1496 1497 1498 1500 1501 1502 1503 1504 1505 1506 1507 1507 1508 1509 1510 1511 1513
1509 1512 1523 1525 1517 1505 1498 1495 1495 1495 1495 1495 1494 1493 1493 1493 1493 1493 1494 1494 1494 1494 1493 1493 1493 1493 1492 1492 1492 1492 1493 1494 1494 1495 1496 1498 1499 1500 1501 1502 1503 1504 1505 1505 1506 1507 1509 1510 1511
1511 1517 1521 1521 1517 1507 1499 1495 1494 1494 1494 1495 1494 1494 1492 1491 1491 1491 1492 1492 1492 1492 1491 1490 1490 1490 1490 1490 1490 1490 1491 1492 1492 1493 1494 1496 1497 1498 1499 1499 1500 1501 1502 1503 1504 1505 1507 1508 1509
1509 1515 1519 1518 1514 1505 1497 1494 1493 1492 1493 1493 1493 1492 1490 1489 1489 1489 1489 1488 1488 1488 1487 1487 1487 1487 1488 1488 1488 1488 1489 1490 1490 1491 1492 1492 1494 1495 1496 1497 1498 1499 1500 1501 1502 1502 1504 1505 1507
1509 1518 1521 1514 1509 1502 1496 1495 1493 1492 1491 1490 1490 1488 1487 1486 1486 1487 1487 1486 1485 1484 1484 1484 1484 1484 1485 1486 1486 1486 1487 1487 1487 1488 1489 1489 1490 1491 1493 1494 1495 1495 1496 1498 1499 1499 1501 1502 1504
1509 1518 1513 1504 1501 1498 1495 1494 1492 1491 1489 1488 1486 1485 1484 1484 1484 1484 1484 1484 1483 1482 1481 1481 1481 1482 1483 1484 1484 1484 1485 1485 1485 1485 1486 1486 1487 1488 1489 1490 1491 1491 1492 1493 1495 1496 1497 1498 1500
1507 1509 1503 1499 1496 1496 1494 1491 1489 1489 1488 1485 1483 1481 1481 1481 1482 1482 1482 1481 1480 1479 1478 1478 1478 1478 1479 1480 1480 1482 1483 1483 1483 1483 1483 1484 1484 1484 1485 1486 1487 1488 1488 1490 1491 1492 1493 1495 1496
1505 1501 1498 1496 1495 1495 1493 1490 1487 1484 1481 1481 1480 1479 1478 1479 1480 1480 1479 1478 1477 1477 1476 1476 1475 1475 1475 1476 1477 1478 1479 1480 1480 1481 1481 1481 1481 1481 1481 1482 1483 1483 1484 1485 1487 1489 1490 1491 1493
1503 1499 1496 1494 1493 1491 1489 1486 1484 1478 1477 1478 1476 1475 1475 1476 1477 1477 1477 1477 1476 1475 1475 1475 1475 1474 1474 1475 1476 1477 1477 1478 1479 1479 1479 1479 1478 1478 1479 1479 1480 1480 1481 1482 1484 1486 1487 1489 1490
1499 1497 1494 1491 1488 1487 1486 1483 1483 1473 1475 1475 1474 1473 1474 1474 1475 1475 1475 1476 1475 1475 1474 1473 1473 1472 1473 1473 1474 1475 1475 1475 1476 1476 1477 1476 1476 1476 1476 1477 1477 1478 1478 1479 1480 1481 1483 1484 1486
1497 1497 1492 1488 1487 1486 1486 1486 1480 1474 1474 1473 1472 1472 1472 1473 1473 1474 1475 1475 1474 1474 1473 1473 1472 1471 1472 1472 1473 1472 1471 1471 1472 1472 1473 1473 1473 1473 1473 1473 1473 1474 1474 1475 1476 1477 1478 1480 1481
1500 1502 1502 1491 1488 1486 1491 1492 1477 1474 1472 1470 1469 1469 1470 1470 1470 1472 1472 1472 1473 1473 1473 1472 1471 1470 1470 1471 1471 1470 1470 1469 1469 1469 1469 1470 1470 1470 1470 1470 1469 1469 1470 1470 1471 1472 1473 1475 1476
1507 1510 1506 1497 1488 1487 1489 1489 1476 1472 1470 1466 1465 1465 1466 1466 1467 1468 1469 1470 1471 1471 1471 1471 1470 1470 1469 1469 1468 1468 1468 1468 1468 1467 1467 1467 1467 1467 1467 1467 1467 1466 1466 1466 1467 1468 1469 1470 1471
1511 1510 1506 1503 1491 1490 1490 1486 1474 1466 1465 1461 1461 1462 1462 1463 1464 1467 1468 1468 1468 1468 1468 1468 1469 1469 1468 1467 1466 1466 1466 1467 1467 1467 1467 1467 1467 1466 1465 1464 1464 1464 1464 1463 1463 1464 1465 1467 1467
1506 1507 1507 1500 1492 1492 1489 1485 1472 1460 1461 1458 1457 1458 1460 1461 1463 1466 1465 1464 1464 1464 1465 1465 1466 1466 1466 1465 1464 1464 1465 1465 1464 1464 1464 1465 1466 1466 1464 1462 1462 1462 1462 1461 1460 1460 1461 1462 1463
1504 1506 1505 1497 1493 1494 1489 1485 1468 1462 1460 1458 1459 1459 1460 1459 1459 1461 1460 1459 1460 1460 1461 1463 1463 1463 1462 1462 1461 1462 1462 1463 1464 1463 1463 1463 1463 1465 1464 1461 1462 1461 1460 1460 1460 1459 1459 1458 1459
1504 1505 1503 1503 1497 1493 1491 1485 1475 1462 1459 1460 1462 1462 1461 1458 1455 1453 1454 1454 1455 1456 1457 1458 1458 1458 1458 1459 1459 1460 1460 1460 1461 1461 1462 1461 1459 1459 1462 1460 1459 1460 1457 1458 1458 1458 1458 1458 1458
1508 1501 1502 1501 1504 1504 1499 1501 1483 1471 1466 1463 1461 1460 1459 1456 1451 1447 1446 1448 1450 1452 1453 1454 1455 1455 1455 1455 1456 1458 1458 1457 1457 1457 1459 1458 1457 1457 1459 1458 1457 1457 1456 1456 1456 1456 1457 1457 1457
1504 1500 1500 1500 1503 1506 1501 1504 1486 1476 1470 1468 1466 1462 1459 1455 1449 1443 1441 1445 1449 1450 1451 1451 1452 1452 1452 1452 1452 1454 1454 1454 1455 1455 1456 1456 1456 1456 1456 1456 1455 1455 1455 1454 1455 1455 1455 1455 1455
1502 1501 1500 1506 1508 1504 1500 1501 1490 1477 1474 1473 1469 1465 1461 1455 1448 1442 1438 1443 1446 1448 1448 1450 1451 1451 1450 1450 1450 1451 1452 1452 1454 1453 1453 1453 1453 1453 1453 1453 1453 1452 1452 1451 1452 1452 1451 1452 1452
1506 1509 1511 1508 1505 1498 1500 1500 1489 1477 1474 1475 1474 1470 1464 1457 1452 1445 1440 1442 1444 1446 1447 1447 1448 1449 1448 1449 1449 1449 1450 1450 1451 1450 1450 1449 1449 1449 1450 1450 1450 1450 1449 1447 1447 1447 1447 1447 1447
1512 1514 1519 1524 1516 1505 1497 1500 1485 1477 1478 1480 1477 1472 1464 1459 1455 1448 1443 1442 1443 1444 1445 1445 1445 1446 1446 1447 1447 1447 1447 1448 1448 1447 1446 1446 1446 1445 1445 1445 1445 1445 1444 1443 1443 1441 1441 1441 1441
1516 1516 1517 1521 1519 1523 1504 1492 1481 1474 1480 1480 1474 1467 1463 1460 1454 1450 1446 1443 1442 1441 1441 1441 1441 1441 1442 1444 1444 1443 1443 1445 1445 1442 1440 1440 1440 1439 1439 1439 1438 1438 1438 1438 1437 1436 1436 1435 1436
1516 1517 1532 1525 1531 1525 1503 1493 1487 1487 1492 1486 1483 1479 1472 1464 1456 1450 1446 1445 1444 1441 1439 1438 1437 1436 1437 1438 1439 1439 1440 1440 1440 1437 1435 1434 1433 1433 1434 1433 1432 1431 1430 1430 1429 1428 1428 1430 1431
1517 1519 1520 1526 1527 1527 1516 1492 1489 1500 1495 1489 1484 1478 1470 1463 1458 1451 1444 1441 1438 1436 1435 1435 1434 1432 1432 1433 1434 1434 1433 1433 1433 1432 1430 1429 1427 1426 1426 1425 1423 1422 1422 1420 1420 1421 1421 1422 1423
1518 1523 1527 1533 1531 1526 1517 1497 1485 1488 1488 1485 1481 1476 1469 1464 1458 1452 1444 1436 1431 1427 1424 1424 1424 1422 1423 1426 1429 1432 1431 1429 1425 1426 1424 1422 1421 1419 1417 1416 1415 1412 1411 1410 1411 1412 1413 1414 1414